GW4835 Weather Reports


Display with metric or nautical units.
time (UTC)temp
F
wind
direction
speed
MPH
gust
MPH
rain 1hr
in
rain 24hr
in
rain mn
in
humidity
%
barometer
mb
20260505023824 67 25 0.0 1.0 0.00 0.00 0.00 65 1009.3
20260505023321 67 35 1.0 1.0 0.00 0.00 0.00 65 1009.3
20260505022818 68 35 1.0 2.0 0.00 0.00 0.00 64 1009.2
20260505022315 68 34 0.0 1.0 0.00 0.00 0.00 65 1009.0
20260505021812 68 34 0.0 1.0 0.00 0.00 0.00 64 1009.2
20260505021309 68 33 0.0 1.0 0.00 0.00 0.00 64 1009.0
20260505020804 68 35 1.0 1.0 0.00 0.00 0.00 63 1008.8
20260505020300 68 33 1.0 1.0 0.00 0.00 0.00 63 1009.0
20260505015757 69 59 2.0 2.0 0.00 0.00 0.00 61 1008.8
20260505015254 68 337 1.0 2.0 0.00 0.00 0.00 62 1008.9
20260505014752 68 37 1.0 1.0 0.00 0.00 0.00 63 1008.9
20260505014249 69 38 1.0 2.0 0.00 0.00 0.00 61 1008.7
20260505013745 69 49 1.0 2.0 0.00 0.00 0.00 61 1008.7
20260505013243 69 32 1.0 1.0 0.00 0.00 0.00 60 1008.8
20260505012741 69 39 2.0 3.0 0.00 0.00 0.00 59 1008.7
20260505012238 69 77 2.0 3.0 0.00 0.00 0.00 59 1008.7
20260505011733 70 36 1.0 1.0 0.00 0.00 0.00 59 1008.6
20260505011231 69 27 0.0 2.0 0.00 0.00 0.00 59 1008.7
20260505010726 70 42 1.0 3.0 0.00 0.00 0.00 58 1008.4
20260505010223 70 25 0.0 1.0 0.00 0.00 0.00 58 1008.5
20260505005719 71 38 1.0 2.0 0.00 0.00 0.00 56 1008.5
20260505005216 71 32 1.0 3.0 0.00 0.00 0.00 55 1008.4
20260505004713 71 64 1.0 2.0 0.00 0.00 0.00 55 1008.6
20260505004210 71 66 2.0 3.0 0.00 0.00 0.00 53 1008.6
20260505003707 71 42 1.0 2.0 0.00 0.00 0.00 56 1008.6
20260505003205 71 14 1.0 3.0 0.00 0.00 0.00 54 1008.4
20260505002701 72 42 1.0 2.0 0.00 0.00 0.00 55 1008.6
20260505002159 72 26 0.0 2.0 0.00 0.00 0.00 53 1008.6
20260505001655 72 49 2.0 2.0 0.00 0.00 0.00 53 1008.6
20260505001153 72 58 1.0 2.0 0.00 0.00 0.00 52 1008.7
20260505000650 73 46 1.0 2.0 0.00 0.00 0.00 52 1008.5
20260505000148 73 34 1.0 2.0 0.00 0.00 0.00 52 1008.6
20260504235644 73 319 2.0 2.0 0.00 0.00 0.00 53 1008.8
20260504235140 73 51 1.0 2.0 0.00 0.00 0.00 52 1008.9
20260504234638 74 37 1.0 2.0 0.00 0.00 0.00 52 1009.0
20260504234135 74 79 1.0 3.0 0.00 0.00 0.00 50 1009.1
20260504233631 75 41 1.0 9.0 0.00 0.00 0.00 48 1009.0
20260504233127 75 147 4.0 4.0 0.00 0.00 0.00 47 1008.9
20260504232625 75 159 3.0 6.0 0.00 0.00 0.00 48 1008.8
20260504232121 75 50 1.0 3.0 0.00 0.00 0.00 53 1008.9
20260504231618 75 55 3.0 4.0 0.00 0.00 0.00 51 1008.9
20260504231114 74 82 2.0 3.0 0.00 0.00 0.00 56 1008.9
20260504230610 74 25 1.0 2.0 0.00 0.00 0.00 57 1009.0
20260504230109 73 142 3.0 3.0 0.00 0.00 0.00 56 1008.9
20260504225607 73 45 1.0 2.0 0.00 0.00 0.00 60 1009.2
20260504225103 73 33 0.0 1.0 0.00 0.00 0.00 59 1009.1
20260504224600 73 32 1.0 1.0 0.00 0.00 0.00 57 1009.2
20260504224057 73 28 0.0 1.0 0.00 0.00 0.00 56 1009.3
20260504223554 73 41 1.0 2.0 0.00 0.00 0.00 55 1009.3
20260504223050 74 53 1.0 2.0 0.00 0.00 0.00 55 1009.4
20260504222547 74 39 1.0 3.0 0.00 0.00 0.00 56 1009.7
20260504222044 74 31 2.0 2.0 0.00 0.00 0.00 54 1009.4
20260504221542 74 16 0.0 1.0 0.00 0.00 0.00 54 1009.3
20260504221038 74 34 1.0 2.0 0.00 0.00 0.00 53 1009.4
20260504220535 74 16 0.0 1.0 0.00 0.00 0.00 53 1009.3
20260504220032 74 74 2.0 2.0 0.00 0.00 0.00 53 1009.4
20260504215528 74 42 1.0 2.0 0.00 0.00 0.00 53 1009.8
20260504215026 74 32 1.0 3.0 0.00 0.00 0.00 53 1009.9
20260504214521 73 56 1.0 2.0 0.00 0.00 0.00 55 1009.9
20260504214018 73 67 2.0 3.0 0.00 0.00 0.00 54 1010.1
20260504213514 74 34 1.0 2.0 0.00 0.00 0.00 55 1010.0
20260504213012 74 54 1.0 3.0 0.00 0.00 0.00 54 1010.1
20260504212507 75 27 1.0 2.0 0.00 0.00 0.00 54 1010.3
20260504212005 74 48 2.0 3.0 0.00 0.00 0.00 53 1010.1
20260504211501 74 156 2.0 3.0 0.00 0.00 0.00 53 1010.1
20260504210959 74 37 3.0 6.0 0.00 0.00 0.00 53 1010.6
20260504210456 74 87 1.0 2.0 0.00 0.00 0.00 54 1010.6
20260504205952 73 214 4.0 7.0 0.00 0.00 0.00 53 1010.5
20260504205450 73 211 3.0 6.0 0.00 0.00 0.00 54 1010.5
20260504204948 73 54 3.0 6.0 0.00 0.00 0.00 53 1010.7
20260504204446 73 41 2.0 2.0 0.00 0.00 0.00 55 1010.8
20260504203945 73 107 2.0 7.0 0.00 0.00 0.00 53 1010.8
20260504203442 73 119 3.0 4.0 0.00 0.00 0.00 54 1010.8
20260504202938 73 13 2.0 4.0 0.00 0.00 0.00 56 1010.9
20260504202435 74 8 1.0 3.0 0.00 0.00 0.00 56 1010.9
20260504201932 75 17 1.0 1.0 0.00 0.00 0.00 56 1010.8
20260504201429 75 9 3.0 3.0 0.00 0.00 0.00 55 1010.7
20260504200927 74 160 3.0 6.0 0.00 0.00 0.00 56 1010.8
20260504200423 73 113 3.0 3.0 0.00 0.00 0.00 58 1010.8
20260504195920 73 41 1.0 3.0 0.00 0.00 0.00 60 1011.0
20260504195416 71 26 1.0 1.0 0.00 0.00 0.00 62 1011.1
20260504194912 71 39 4.0 7.0 0.00 0.00 0.00 60 1011.4
20260504194408 71 20 1.0 2.0 0.00 0.00 0.00 61 1011.6
20260504193904 70 28 2.0 2.0 0.00 0.00 0.00 63 1011.6
20260504193402 69 14 0.0 3.0 0.00 0.00 0.00 64 1011.3
20260504192900 69 131 2.0 3.0 0.00 0.00 0.00 63 1011.3
20260504192357 69 155 4.0 4.0 0.00 0.00 0.00 63 1011.9
20260504191856 68 28 1.0 1.0 0.00 0.00 0.00 66 1012.2
20260504191354 68 52 1.0 2.0 0.00 0.00 0.00 64 1011.8
20260504190849 68 12 0.0 2.0 0.00 0.00 0.00 69 1012.2
20260504190345 68 12 0.0 3.0 0.00 0.00 0.00 66 1012.3
20260504185842 68 18 1.0 4.0 0.00 0.00 0.00 66 1012.7
20260504185339 68 354 1.0 8.0 0.00 0.00 0.00 64 1012.3
20260504184835 68 35 2.0 4.0 0.00 0.00 0.00 62 1012.5
20260504184331 68 53 2.0 7.0 0.00 0.00 0.00 64 1012.3
20260504183826 68 25 2.0 3.0 0.00 0.00 0.00 61 1012.1
20260504183324 69 36 2.0 10.0 0.00 0.00 0.00 63 1012.1
20260504182822 69 92 3.0 6.0 0.00 0.00 0.00 60 1011.8
20260504182319 69 183 3.0 7.0 0.00 0.00 0.00 62 1011.8
20260504181816 70 99 1.0 2.0 0.00 0.00 0.00 62 1011.5
20260504181314 71 20 1.0 3.0 0.00 0.00 0.00 62 1011.6
20260504180812 70 49 3.0 7.0 0.00 0.00 0.00 60 1011.2
20260504180310 70 59 2.0 6.0 0.00 0.00 0.00 61 1011.3
20260504175808 70 117 3.0 3.0 0.00 0.00 0.00 64 1011.2
20260504175305 69 110 3.0 3.0 0.00 0.00 0.00 63 1011.3
20260504174803 69 149 5.0 6.0 0.00 0.00 0.00 63 1011.3
20260504174300 69 45 2.0 3.0 0.00 0.00 0.00 63 1011.6
20260504173756 69 79 1.0 2.0 0.00 0.00 0.00 63 1011.5
20260504173253 69 36 0.0 3.0 0.00 0.00 0.00 64 1011.8
20260504172750 69 56 1.0 2.0 0.00 0.00 0.00 62 1011.6
20260504172247 68 12 1.0 2.0 0.00 0.00 0.00 64 1011.2
20260504171743 68 36 1.0 2.0 0.00 0.00 0.00 65 1011.4
20260504171240 68 131 3.0 3.0 0.00 0.00 0.00 63 1011.4
20260504170737 68 30 1.0 3.0 0.00 0.00 0.00 65 1011.4
20260504170234 67 27 1.0 2.0 0.00 0.00 0.00 65 1011.9
20260504160153 66 344 3.0 4.0 0.00 0.00 0.00 64 1012.1
20260504151120 62 41 2.0 3.0 0.00 0.00 0.00 67 1012.7
20260504150618 62 27 1.0 2.0 0.00 0.00 0.00 69 1012.3
20260504150115 62 23 2.0 3.0 0.00 0.00 0.00 67 1012.2
20260504141043 61 25 1.0 4.0 0.00 0.00 0.00 68 1012.7
20260504140540 61 9 1.0 1.0 0.00 0.00 0.00 69 1012.7
20260504130504 56 67 3.0 3.0 0.00 0.00 0.00 72 1013.1
20260504110351 52 31 1.0 2.0 0.00 0.00 0.00 73 1012.8
20260504100309 48 25 0.0 1.0 0.00 0.00 0.00 79 1013.1
20260504081702 52 16 1.0 2.0 0.00 0.00 0.00 66 1013.7
20260504081158 53 70 2.0 2.0 0.00 0.00 0.00 67 1013.6
20260504080655 53 84 2.0 4.0 0.00 0.00 0.00 65 1013.7
20260504080152 53 68 1.0 2.0 0.00 0.00 0.00 66 1013.7
20260504070119 53 64 2.0 3.0 0.00 0.00 0.00 65 1014.3
20260504050508 51 19 0.0 1.0 0.00 0.00 0.00 71 1015.5
20260504050005 51 34 0.0 1.0 0.00 0.00 0.00 71 1015.5
20260504045500 51 34 0.0 1.0 0.00 0.00 0.00 70 1015.8
20260504044957 51 34 0.0 1.0 0.00 0.00 0.00 70 1015.8
20260504044454 51 34 1.0 1.0 0.00 0.00 0.00 70 1015.7
20260504043952 52 34 0.0 0.0 0.00 0.00 0.00 69 1015.7
20260504043449 52 34 0.0 0.0 0.00 0.00 0.00 68 1015.7
20260504042946 52 34 1.0 1.0 0.00 0.00 0.00 67 1015.8
20260504042442 53 34 0.0 1.0 0.00 0.00 0.00 68 1015.9
20260504041939 53 27 0.0 1.0 0.00 0.00 0.00 66 1015.7
20260504041435 53 35 1.0 2.0 0.00 0.00 0.00 64 1015.8
20260504040931 53 33 0.0 1.0 0.00 0.00 0.00 68 1016.0
20260504040429 53 33 1.0 1.0 0.00 0.00 0.00 64 1015.9
20260504035925 53 33 0.0 2.0 0.00 0.00 0.00 63 1015.8
20260504035423 54 32 0.0 1.0 0.00 0.00 0.00 66 1016.0
20260504034919 54 29 0.0 1.0 0.00 0.00 0.00 64 1016.2
20260504034417 54 29 0.0 1.0 0.00 0.00 0.00 60 1016.2
20260504033914 54 29 0.0 1.0 0.00 0.00 0.00 64 1016.3
20260504033412 54 25 1.0 1.0 0.00 0.00 0.00 61 1016.2
20260504032908 54 28 0.0 1.0 0.00 0.00 0.00 62 1016.1
20260504032405 54 23 0.0 0.0 0.00 0.00 0.00 62 1016.3
20260504031902 54 24 0.0 1.0 0.00 0.00 0.00 64 1016.2
20260504031359 55 23 0.0 0.0 0.00 0.00 0.00 66 1016.4
20260504030855 55 22 0.0 1.0 0.00 0.00 0.00 62 1016.5
20260504030353 55 33 0.0 0.0 0.00 0.00 0.00 62 1016.3
20260504025848 55 34 0.0 1.0 0.00 0.00 0.00 61 1016.5
20260504025346 55 34 0.0 1.0 0.00 0.00 0.00 60 1016.6
20260504024842 56 32 0.0 1.0 0.00 0.00 0.00 55 1016.7
20260504024339 56 31 0.0 0.0 0.00 0.00 0.00 59 1016.5